Girona, Spain

10:34 AM CEST on May 22, 2018 (GMT +0200)
Girona

Weather History for LEGE - August, 2013

Change the Weather History Date:

Monday, August 26, 2013

  Actual Average Record
Temperature  
Mean Temperature 67 °F -  
Max Temperature 75 °F 78 °F 95 °F (2007)
Min Temperature 59 °F 58 °F 56 °F (2016)
Cooling Degree Days 2    
Growing Degree Days 17 (Base 50)    
Moisture  
Dew Point 62 °F    
Average Humidity 88    
Maximum Humidity 100    
Minimum Humidity 59    
Precipitation  
Precipitation 0.02 in 0.08 in - ()
Sea Level Pressure  
Sea Level Pressure 29.89 in    
Wind  
Wind Speed 1 mph ()    
Max Wind Speed 7 mph    
Max Gust Speed -    
Visibility 6.5 miles    
Events Rain , Thunderstorm    
Averages and records for this station are not official NWS values.
T = Trace of Precipitation, MM = Missing Value Source: Averaged Metar Reports

Daily Weather History Graph

Daily Weather History Graph

Search for Another Location

Airport or City:

Astronomy

Aug. 26, 2013 Rise Set
Actual Time 7:08 AM CEST 8:32 PM CEST
Civil Twilight 6:39 AM CEST 9:01 PM CEST
Nautical Twilight 6:04 AM CEST 9:36 PM CEST
Astronomical Twilight 5:27 AM CEST 10:12 PM CEST
Moon 11:25 PM CEST (8/26) 1:01 PM CEST (8/26)
Length of Visible Light 14h 21m
Length of Day
13h 23m
Waning Gibbous, 69% of the Moon is Illuminated
Aug 26
Waning Gibbous
Aug 28
Last Quarter
Sep 5
New
Sep 12
First Quarter
Sep 19
Full

Hourly Weather History & Observations

Time (CEST) Temp. Dew Point Humidity Pressure Visibility Wind Dir Wind Speed Gust Speed Precip Events Conditions
12:00 AM 66.2 °F 62.6 °F 88% 29.89 in 6.2 mi Calm Calm - N/A   Mostly Cloudy
12:30 AM 64.4 °F 62.6 °F 94% 29.89 in 6.2 mi Calm Calm - N/A   Scattered Clouds
1:00 AM 64.4 °F 62.6 °F 94% 29.89 in 6.2 mi Calm Calm - N/A   Scattered Clouds
1:30 AM 62.6 °F 62.6 °F 100% 29.89 in 6.2 mi Calm Calm - N/A   Scattered Clouds
2:00 AM 63 °F 62 °F 95% 29.88 in 12 mi Calm Calm - -   Scattered Clouds
2:00 AM 62.6 °F 62.6 °F 100% 29.89 in 6.2 mi Calm Calm - N/A   Scattered Clouds
2:30 AM 62.6 °F 62.6 °F 100% 29.89 in 6.2 mi Calm Calm - N/A   Scattered Clouds
3:00 AM 60.8 °F 60.8 °F 100% 29.89 in 6.2 mi North 2.3 mph - N/A   Scattered Clouds
3:30 AM 60.8 °F 60.8 °F 100% 29.89 in 6.2 mi NW 1.2 mph - N/A   Scattered Clouds
4:00 AM 60.8 °F 60.8 °F 100% 29.89 in 6.2 mi NW 1.2 mph - N/A   Scattered Clouds
4:30 AM 60.8 °F 60.8 °F 100% 29.89 in 6.2 mi Calm Calm - N/A   Scattered Clouds
5:00 AM 60.8 °F 59.0 °F 94% 29.89 in 6.2 mi Calm Calm - N/A   Scattered Clouds
5:30 AM 59.0 °F 59.0 °F 100% 29.89 in 6.2 mi Calm Calm - N/A Thunderstorm Mostly Cloudy
6:00 AM 59.0 °F 59.0 °F 100% 29.89 in 6.2 mi Variable 1.2 mph - N/A   Mostly Cloudy
6:30 AM 59.0 °F 59.0 °F 100% 29.89 in 6.2 mi Variable 1.2 mph - N/A   Scattered Clouds
7:00 AM 59.0 °F 59.0 °F 100% 29.89 in 6.2 mi North 1.2 mph - N/A   Scattered Clouds
7:30 AM 59.0 °F 59.0 °F 100% 29.89 in 6.2 mi Calm Calm - N/A   Mostly Cloudy
8:00 AM 60.8 °F 60.8 °F 100% 29.89 in 6.2 mi Variable 2.3 mph - N/A   Mostly Cloudy
8:30 AM 62.6 °F 60.8 °F 94% 29.89 in 6.2 mi Calm Calm - N/A   Mostly Cloudy
9:00 AM 62.6 °F 60.8 °F 94% 29.89 in 6.2 mi Calm Calm - N/A   Mostly Cloudy
9:30 AM 66.2 °F 62.6 °F 88% 29.89 in 6.2 mi Calm Calm - N/A   Mostly Cloudy
10:00 AM 68.0 °F 62.6 °F 83% 29.89 in 6.2 mi ENE 3.5 mph - N/A   Mostly Cloudy
10:30 AM 69.8 °F 62.6 °F 78% 29.89 in 6.2 mi NNE 3.5 mph - N/A   Mostly Cloudy
11:00 AM 69.8 °F 62.6 °F 78% 29.89 in 6.2 mi Variable 2.3 mph - N/A   Mostly Cloudy
11:30 AM 71.6 °F 62.6 °F 73% 29.89 in 6.2 mi Variable 2.3 mph - N/A   Scattered Clouds
12:00 PM 73.4 °F 60.8 °F 65% 29.89 in 6.2 mi ENE 1.2 mph - N/A   Scattered Clouds
12:30 PM 71.6 °F 59.0 °F 64% 29.89 in 6.2 mi Variable 1.2 mph - N/A   Mostly Cloudy
1:00 PM 69.8 °F 62.6 °F 78% 29.89 in 6.2 mi Variable 2.3 mph - N/A   Overcast
1:09 PM 69.8 °F 62.6 °F 78% 29.89 in 6.2 mi North 3.5 mph - N/A Rain Light Rain
1:30 PM 69.8 °F 64.4 °F 83% 29.89 in 6.2 mi Variable 1.2 mph - N/A   Mostly Cloudy
2:00 PM 75 °F 63 °F 59% 29.86 in - NNE 4.6 mph - -   Unknown Precipitation
2:00 PM 73.4 °F 62.6 °F 69% 29.89 in 6.2 mi NNE 3.5 mph - N/A   Overcast
2:30 PM 71.6 °F 62.6 °F 73% 29.89 in 6.2 mi ENE 3.5 mph - N/A   Mostly Cloudy
3:00 PM 71.6 °F 60.8 °F 69% 29.89 in 6.2 mi ESE 6.9 mph - N/A   Overcast
3:30 PM 69.8 °F 60.8 °F 73% 29.89 in 6.2 mi ENE 6.9 mph - N/A   Overcast
4:00 PM 66.2 °F 62.6 °F 88% 29.89 in 6.2 mi North 4.6 mph - N/A   Mostly Cloudy
4:30 PM 66.2 °F 62.6 °F 88% 29.89 in 6.2 mi NNE 5.8 mph - N/A   Overcast
5:00 PM 66.2 °F 62.6 °F 88% 29.89 in 6.2 mi Variable 2.3 mph - N/A   Overcast
5:30 PM 64.4 °F 62.6 °F 94% 29.89 in 6.2 mi NW 3.5 mph - N/A Rain Light Rain Showers
6:00 PM 64.4 °F 62.6 °F 94% 29.89 in 6.2 mi NW 3.5 mph - N/A   Overcast
6:30 PM 66.2 °F 62.6 °F 88% 29.89 in 6.2 mi Variable 2.3 mph - N/A   Mostly Cloudy
7:00 PM 66.2 °F 62.6 °F 88% 29.89 in 6.2 mi NNW 1.2 mph - N/A   Overcast
7:30 PM 66.2 °F 62.6 °F 88% 29.89 in 6.2 mi Calm Calm - N/A   Mostly Cloudy
8:00 PM 67 °F 63 °F 81% 29.88 in 16 mi Calm Calm - -   Overcast
8:00 PM 66.2 °F 62.6 °F 88% 29.89 in 6.2 mi Calm Calm - N/A   Mostly Cloudy
8:30 PM 66.2 °F 60.8 °F 83% 29.92 in 6.2 mi Calm Calm - N/A   Mostly Cloudy
9:00 PM 64.4 °F 60.8 °F 88% 29.92 in 6.2 mi Variable 1.2 mph - N/A   Mostly Cloudy
9:30 PM 64.4 °F 62.6 °F 94% 29.92 in 6.2 mi WNW 2.3 mph - N/A   Mostly Cloudy
10:00 PM 64.4 °F 60.8 °F 88% 29.92 in 6.2 mi Variable 1.2 mph - N/A   Mostly Cloudy
10:30 PM 64.4 °F 60.8 °F 88% 29.92 in 6.2 mi Variable 1.2 mph - N/A   Mostly Cloudy
11:00 PM 64.4 °F 60.8 °F 88% 29.92 in 6.2 mi Calm Calm - N/A   Mostly Cloudy
11:30 PM 64.4 °F 60.8 °F 88% 29.92 in 6.2 mi Calm Calm - N/A   Mostly Cloudy